Location: Bakov nad Jizerou
(50.4784°N, 14.9394°E)
Time: 08:58:38
(UTC+00:00)

Cosmos 2100 Rocket - Pass Details

Date: 16 June 2021
Orbit: 955 x 1001 km, 82.9° (Epoch: 04 August)

Event Time Altitude Azimuth Distance (km) Brightness Sun altitude
Rises 19:54:07 0° 351° (N) 3,740 8.1 -5.4°
Reaches altitude 10° 19:56:43 10° 355° (N) 2,785 7.3 -5.7°
Maximum altitude 20:03:03 61° 76° (ENE) 1,125 4.3 -6.3°
Drops below altitude 10° 20:09:18 10° 157° (SSE) 2,747 5.7 -7.0°
Enters shadow 20:10:02 - 158° (SSE) 3,015 5.9 -7.1°
